Regional Weather Roundup
Issued by NWS Boston, MA

Home | Current Version | Previous Version | Text Only | Print | Product List | Glossary On
Versions: 1 2 3 4 5 6 7 8 9 10 11 12 13 14 15 16 17 18 19 20 21 22 23 24 25 26 27 28
000
ASUS41 KBOX 300310
RWRBOX

REGIONAL WEATHER ROUNDUP
NATIONAL WEATHER SERVICE TAUNTON MA
1100 PM EDT SUN MAY 29 2016

NOTE:  "FAIR" INDICATES FEW OR NO CLOUDS BELOW 12,000 FEET WITH NO
SIGNIFICANT WEATHER AND/OR OBSTRUCTIONS TO VISIBILITY.  THE FOLLOWING
OBSERVATION LOCATIONS DO NOT REPORT PRESENT WEATHER...PROVINCETOWN...
SMITHFIELD...BLOCK ISLAND...KEENE...AND OXFORD.

MAZALL-300400-
EASTERN MASSACHUSETTS

CITY           SKY/WX    TMP DP  RH WIND       PRES   REMARKS
BOSTON         CLOUDY    53  52  96 E6        30.16F FOG
BEVERLY        CLOUDY    53  50  89 CALM      30.15F FOG
LAWRENCE       CLOUDY    52  50  93 NE3       30.18F
BEDFORD        CLOUDY    53  52  96 NE5       30.14F FOG
BLUE HILL        N/A     51  51 100 NE8       30.13F
NORWOOD        CLOUDY    54  52  93 NE5       30.14F FOG
MARSHFIELD     CLOUDY    54  54 100 CALM      30.15F FOG
PLYMOUTH       CLOUDY    54  54 100 NE5       30.15F FOG
TAUNTON        LGT RAIN  58  53  84 VRB3      30.14F
NEW BEDFORD    CLOUDY    58  55  90 NE5       30.13F FOG
$$

MAZALL-300400-
CAPE COD AND THE ISLANDS

CITY           SKY/WX    TMP DP  RH WIND       PRES   REMARKS
FALMOUTH       CLOUDY    55  54  94 NE5       30.14F FOG
HYANNIS        CLOUDY    57  54  89 N5        30.13F FOG
CHATHAM        CLOUDY    59  56  89 NE3       30.15F
PROVINCETOWN   FOG       53  53 100 CALM      30.15F VSB 1/2
NANTUCKET      CLOUDY    60  58  92 E6        30.14F
MARTHAS VNYRD  LGT RAIN  58  57  97 NE8       30.14F FOG
$$

MAZALL-300400-
CENTRAL AND WESTERN MASSACHUSETTS

CITY           SKY/WX    TMP DP  RH WIND       PRES   REMARKS
WORCESTER      FOG       53  52  96 NE6       30.14F VSB 1/2
FITCHBURG      CLOUDY    55  52  89 E3        30.15F FOG
ORANGE         CLOUDY    58  54  86 E6        30.12F
SPRINGFIELD    CLOUDY    63  57  81 VRB3      30.08F
WESTFIELD      CLOUDY    66  58  75 N6        30.09F
NORTH ADAMS    NOT AVBL
PITTSFIELD     CLOUDY    66  61  84 N3        30.08F
$$

RIZALL-300400-
RHODE ISLAND

CITY           SKY/WX    TMP DP  RH WIND       PRES   REMARKS
PROVIDENCE     DRIZZLE   58  55  90 NE6       30.14F FOG
NEWPORT        CLOUDY    62  61  96 SE3       30.13F FOG
BLOCK ISLAND   LGT RAIN  63  63 100 S8        30.13F VSB 3/4
SMITHFIELD     CLOUDY   N/A N/A N/A E5        30.14F
WESTERLY       FOG       64  61  90 E8        30.12F VSB 1
$$

CTZALL-300400-
CONNECTICUT

CITY           SKY/WX    TMP DP  RH WIND       PRES   REMARKS
BRADLEY INTL   CLOUDY    72  66  81 S12       30.08S
HARTFORD       CLOUDY    74  67  78 S6        30.08F
BRIDGEPORT     CLOUDY    68  66  93 SE7       30.08F FOG
DANBURY        CLOUDY    70  66  87 S8        30.09S
GROTON         FOG       63  63 100 E7        30.11F VSB 1/4
NEW HAVEN      FOG       67  66  97 SE7       30.09F VSB 3/4
CHESTER        FOG       68  68 100 SE6       30.11F VSB 1/4
MERIDEN        CLOUDY    72  67  84 SE8       30.09S
WILLIMANTIC    CLOUDY    72  67  84 SE5       30.10F
OXFORD           N/A     70  64  83 S8        30.11S
$$

MEZ002-015-021-024-NHZ003-005-008-011-012-014-VTZ005-008-300400-
NORTHERN NEW ENGLAND

CITY           SKY/WX    TMP DP  RH WIND       PRES   REMARKS
PORTLAND ME    FOG       51  50  96 CALM      30.18F VSB 1
BANGOR ME      CLOUDY    54  44  69 SE10      30.18F
CONCORD NH     CLOUDY    53  50  89 CALM      30.16F
MANCHESTER NH  CLOUDY    53  50  89 CALM      30.15F FOG
NASHUA NH      CLOUDY    54  52  93 E3        30.16F
PORTSMOUTH NH  CLOUDY    51  50  95 E1        30.15F FOG
JAFFREY NH     CLOUDY    53 N/A N/A VRB3      30.14F FOG
KEENE NH       CLOUDY    59  54  82 NE3       30.13F
BURLINGTON VT  LGT RAIN  71  65  81 E6        29.98F
MT. WASHINGTON LGT RAIN  54  54 100 SW33        N/A  VSB 0
$$

NYZ052-076-300400-
EASTERN NEW YORK

CITY           SKY/WX    TMP DP  RH WIND       PRES   REMARKS
ALBANY         CLOUDY    70  66  87 W3        30.03F
NEW YORK CITY  LGT RAIN  71  69  93 S7        30.06S
$$

ANZALL-300400-
MARINE OBSERVATIONS

STATION/POSITION TIME  TEMP    WIND        PRES    VSBY  WAVE
                       AIR SEA DIR/SP/G                  HT/PER
                 (UTC) (F)     (DEG/KT/KT) (MB)    (MI)  (FT/S)
BOSTON BUOY      0250   53 56   20/  6/  8 1020.7F         3/ 6
BUZZARDS BAY     0200   58      70/ 12/ 12 1021.2R
NANTUCKET SOUND  0250   56 58   80/  6/  6 1020.7F         1
MASS BAY-STELLWA 0204   51 54                N/A    1 7/8
ISLE OF SHOALS   0300   51      50/  3/  3 1021.2F
S OF BLOCK IS    0225      61                N/A           2/ 8
$$

......................KEY.........................
  SKY/WX - SKY CONDITION/PRESENT WEATHER
  TMP    - TEMPERATURE IN FAHRENHEIT
  DWPT   - DEWPOINT IN FAHRENHEIT
  RH     - RELATIVE HUMIDITY IN PERCENT
  WIND   - DIRECTION AND SPEED IN MPH
  PRES   - MEAN SEA LEVEL PRESSURE IN INCHES OF HG
  WCI    - WIND CHILL INDEX
  VSB    - VISIBILITY IN MILES
  HX     - HEAT INDEX
  TC     - TEMPERATURE IN CELSIUS
  VRB    - VARIABLE WIND DIRECTION
  N/A    - NOT AVAILABLE




USA.gov is the U.S. government's official web portal to all federal, state and local government web resources and services.